User: anonymous   Login
Location: Unspecified
(0.0000°N, 0.0000°E)
Time: 06:38:14
(UTC+00:00)
Language:

Kosmos-2233 - Orbit

View from above orbital plane
View from above orbital plane
View from above satellite
View from above satellite

Ground track
Ground track

The orbit data is extracted from the following two-line orbital elements,

1 22487U 93008A   19082.85461948  .00000040  00000-0  26015-4 0  9990
2 22487  82.9477 342.3181 0036995 299.3383 131.2060 13.75784303306972
Epoch (UTC): 23 March 2019 20:30:39
Eccentricity: 0.0036995
inclination: 82.9477°
perigee height: 951 km
apogee height: 1006 km
right ascension of ascending node: 342.3181°
argument of perigee: 299.3383°
revolutions per day: 13.75784303
mean anomaly at epoch: 131.2060°
orbit number at epoch: 30697

The dashed part of the orbit path shows where the satellite is in the earth's shadow,  

DLR